This demonstration page uses our WeatherBlox Daily Observations layout. Learn more.

Left ArrowRight Arrow

Hourly Observations for July 17, 2018

Temp ( °F °C ) Dew Point ( °F °C ) Humidity (%) Winds ( mph kmh ) Pressure ( in mb ) Visibility ( mi km ) Precip ( " mm )
12:53 am 00:53 Clear 85 29.4 55 12.8 36 36 N 5 7 29.87 1011 10 16 0.00 0.00
1:53 am 01:53 Clear 80 26.7 55 12.8 42 42 N 5 7 29.87 1012 10 16 0.00 0.00
2:53 am 02:53 Clear 77 25 58 14.4 52 52 Calm 29.88 1012 10 16 0.00 0.00
3:53 am 03:53 Clear 76 24.4 58 14.4 54 54 Calm 29.89 1012 10 16 0.00 0.00
4:53 am 04:53 Clear 74 23.3 59 15 60 60 Calm 29.90 1012 10 16 0.00 0.00
5:53 am 05:53 Clear 73 22.8 59 15 62 62 Calm 29.91 1013 10 16 0.00 0.00
6:53 am 06:53 Sunny 74 23.3 59 15 60 60 Calm 29.93 1013 10 16 0.00 0.00
7:53 am 07:53 Sunny 81 27.2 57 13.9 44 44 Calm 29.94 1014 10 16 0.00 0.00
8:53 am 08:53 Sunny 86 30 58 14.4 39 39 Calm 29.93 1014 10 16 0.00 0.00
9:53 am 09:53 Sunny 89 31.7 57 13.9 34 34 Calm 29.92 1013 10 16 0.00 0.00
10:53 am 10:53 Sunny 94 34.4 56 13.3 28 28 N 6 9 29.91 1013 10 16 0.00 0.00
11:53 am 11:53 Sunny 97 36.1 57 13.9 26 26 VRB 3 6 29.89 1012 10 16 0.00 0.00
12:53 pm 12:53 Sunny 101 38.3 53 11.7 20 20 SW 7 11 29.88 1012 10 16 0.00 0.00
1:53 pm 13:53 Sunny 103 39.4 53 11.7 19 19 Calm 29.86 1011 10 16 0.00 0.00
2:53 pm 14:53 Sunny 105 40.6 54 12.2 18 18 undefined N/A 29.84 1010 10 16 0.00 0.00
3:53 pm 15:53 Sunny 108 42.2 46 7.8 12 12 VRB 7 11 29.81 1010 10 16 0.00 0.00
4:53 pm 16:53 Sunny 108 42.2 52 11.1 16 16 SSE 15 24 29.80 1009 10 16 0.00 0.00
5:53 pm 17:53 Sunny 107 41.7 51 10.6 15 15 SSE 15 24 29.79 1009 10 16 0.00 0.00
6:53 pm 18:53 Sunny 105 40.6 53 11.7 18 18 SSE 13 20 29.78 1009 10 16 0.00 0.00
7:53 pm 19:53 Sunny 101 38.3 50 10 18 18 SSE 10 17 29.80 1009 10 16 0.00 0.00
8:53 pm 20:53 Clear 93 33.9 54 12.2 27 27 SE 9 15 29.81 1010 10 16 0.00 0.00
9:53 pm 21:53 Clear 90 32.2 55 12.8 31 31 SSE 5 7 29.83 1010 10 16 0.00 0.00
10:53 pm 22:53 Clear 89 31.7 55 12.8 31 31 N 5 7 29.85 1011 10 16 0.00 0.00
11:53 pm 23:53 Clear 85 29.4 56 13.3 37 37 N 3 6 29.86 1011 10 16 0.00 0.00

Powered by AerisWeather